FENGYUN 1C DEB, 31814

Orbit data source: Space-Track

FENGYUN 1C DEB, 31814 is space debris in SSO originally from a launch on Mon, 10 May 1999 UTC launched from the Taiyaun Space Center, China (TSC). Fengyun 1C debris stems from the Chinese weather satellite Fengyun-1C, which was intentionally destroyed by a Chinese anti-satellite missile in 2007. This event dramatically increased the amount of space debris, with thousands of trackable fragments posing hazards to satellites and human spaceflight. The Fengyun 1C debris cloud has become a focal point in discussions about space sustainability and the need for international regulations to prevent the creation of new debris.

Loading next visibility...
Identifier
31814, 1999-025CHC
Orbit
SSO
Country
Flag of CNCN / PRC
Related business
Manufacturer
Unknown
Mission
Spacecraft
Bus & Motor
Unknown
Mass
Unknown
Launch date (UTC)
1999-05-10 (27 years ago)
Launch vehicle
Unknown
Launch site
Taiyaun Space Center, China (TSC)
Object type
Payload
Rocket body
Debris
Shape & HBR
Unknown shape, 0.1 m
Radar Cross Section
Small (<0.1 m²)

Expand to show TLE details & history
Last TLE update: 2 weeks ago

TLE from 2 weeks ago
0 FENGYUN 1C DEB
1 31814U 99025CHC 26148.42875266  .00000552  00000-0  59544-3 0  9995
2 31814  99.5474 201.3556 0230715 147.4699 214.0903 13.66664262640761
Epoch: 2026-05-28T10:17Z
TLE epoch observation values (Epoch: 2026-05-28T10:17:24.229Z)
Latitude
-0.0001°
Longitude
161.03104°
Altitude
1,156.809 km
Speed
7.204 km/s
True Right ascension
13h 25m 25s
True Declination
0° 00' 00"
Sunlit
Object was in full shadow at epoch
Visualization orbit readout
Latitude
Unknown
Longitude
Unknown
Altitude
Unknown
Speed
Unknown
Apparent Right ascension
Unknown
Apparent Declination
Unknown
Sunlit
N/A
Visualization observer readout
Local Sidereal Time
01:24:32
Azimuth
Unknown
Elevation
Unknown
Doppler factor
Unknown
Orbital elements
Apogee altitude
1,179.269 km
Perigee altitude
838.412 km
Semi-major axis
7,386.977 km
Eccentricity
0.02307
Inclination
99.5474°
RAAN
201.3556°
Arg. of periapsis
147.4699°
True anomaly
212.6432°
Mean anomaly
214.0903°
Eccentric anomaly
213.36333°
Mean motion
3.41856 °/min
Orbital period
105.31 mins
BSTAR
0.00059544
Loading maneuver chart data...
Computing Atmospheric mass density...
Loading historical data...
Loading historical data...
Loading historical data...
Loading historical data...
Loading historical data...
Loading historical data...
Loading historical data...

Documentation

Showing up to 5 results
|